Rbgn^[z[y[W
メイン
   新天体発見情報
     Comet C/2017 K6 (Jacques)
投稿するにはまず登録を

スレッド表示 | 新しいものから 前のトピック | 次のトピック | 下へ
投稿者 スレッド
佐藤裕久
投稿日時: 2017-6-10 12:23
モデレータ
登録日: 2005-6-12
居住地: 日本
投稿: 1775
オンライン
Comet C/2017 K6 (Jacques)

Cristovao Jacques (Belo Horizonte, MG, ブラジル) の通報によると、E. Pimentel、J. Barrosと彼は、
5月29日、OliveiraにあるSONEAR 天文台の0.45-m f/2.9 反射望遠鏡で得たCCD画像から彗星を発見した。
この彗星は60秒の画像3枚のスタックで集光ある17"のコマとp.a. 261°に40" の尾が見える。
小惑星センターのNEOCPとPCCP webpageに公表後、A. C. GilmoreとP. M. Kilmartin (Mount John 大学
天文台, 1.0-m f/7.7 反射望遠鏡)や佐藤英貴氏(東京都文京区, iTelescope天文台, 0.70-m f/6.6 アス
トログラフ+輝度フィルター, Siding Spring, 遠隔操作)らCCD位置観測者によって彗星状と観測された。

発見位置は次のとおり、

     2017 UT             R.A. (2000) Decl.       Mag.   Observer
     May  29.31366   22 57 22.46   -56 59 20.7   17.5   Jacques
          29.32017   22 57 23.27   -56 59 26.0   17.6     "
          29.32859   22 57 24.37   -56 59 34.1   17.7     "

暫定放物線軌道要素と位置推算表は次のとおり、

Orbital elements:
    C/2017 K6 (Jacques)
T 2018 Jan. 1.73428 TT                                  MPCW
q   2.1091734            (2000.0)            P               Q
                   Peri.  300.27771     +0.50428378     -0.20047911
                   Node    85.34685     +0.71594810     +0.64090818
e   1.0            Incl.   57.42864     -0.48282108     +0.74097559
From 50 observations 2017 May 29-June 1.

Ephemeris:
    C/2017 K6 (Jacques)
Date    TT    R. A. (2000) Decl.     Delta      r     Elong.  Phase   m1
2017 05 02    22 03 31.9 -51 25 49   3.3285  3.4616    89.0    16.9  19.0
...
2017 05 17    22 32 13.8 -54 15 55   3.0528  3.3397    97.6    17.5  18.7
...
2017 05 25    22 48 22.8 -55 59 42   2.9170  3.2752   101.6    17.6  18.5
...
2017 05 31    23 00 56.7 -57 23 15   2.8214  3.2273   104.4    17.7  18.3
2017 06 01    23 03 04.8 -57 37 37   2.8060  3.2193   104.9    17.7  18.3
2017 06 02    23 05 13.7 -57 52 07   2.7908  3.2113   105.3    17.7  18.3
...
2017 06 08    23 18 23.6 -59 21 26   2.7033  3.1638   107.7    17.8  18.2
...
2017 06 16    23 36 45.6 -61 26 04   2.5966  3.1009   110.4    17.9  18.0
...
2017 07 01    00 14 02.2 -65 29 51   2.4292  2.9851   113.6    18.2  17.7

(CBET 4399、MPEC 2017-L06)

スレッド表示 | 新しいものから 前のトピック | 次のトピック | トップ

投稿するにはまず登録を
 
© 1999-2013 Tsutomu Seki.